FW1098 Weather Reports


time (UTC)temp
C
wind
direction
speed
KPH
gust
KPH
rain 1hr
cm
rain 24hr
cm
rain mn
cm
humidity
%
barometer
mb
20260906091608 20 226 0.0 0.0 0.00 1.63 0.03 97 1011.0
20260906090059 20 226 0.0 0.0 0.00 1.63 0.03 97 1011.0
20260906084559 20 226 0.0 0.0 0.00 1.63 0.03 96 1011.0
20260906083059 20 226 0.0 0.0 0.00 1.63 0.03 96 1010.8
20260906081600 20 226 0.0 0.0 0.00 1.63 0.03 96 1010.6
20260906080058 20 226 0.0 0.0 0.00 1.63 0.03 96 1010.7
20260906074556 20 226 0.0 0.0 0.00 1.63 0.03 96 1010.6
20260906073055 21 226 0.0 0.0 0.00 1.63 0.03 96 1010.7
20260906071555 21 226 0.0 0.0 0.03 1.63 0.03 96 1010.7
20260906070054 21 226 0.0 0.0 0.03 1.63 0.03 96 1010.6
20260906064552 21 226 0.0 0.0 0.03 1.63 0.03 97 1010.6
20260906063050 21 226 0.0 0.0 0.03 1.63 0.03 97 1011.0
20260906061550 21 226 0.0 0.0 0.00 1.60 0.00 96 1011.0
20260906060048 21 226 0.0 0.0 0.00 1.60 0.00 96 1011.3
20260906054545 21 226 0.0 0.0 0.00 1.60 0.00 96 1011.5
20260906053045 21 226 0.0 0.0 0.00 1.60 0.00 96 1011.6
20260906051543 21 226 0.0 0.0 0.00 1.60 0.00 96 1011.7
20260906050045 21 226 0.0 0.0 0.00 1.60 0.00 96 1011.8
20260906044544 21 226 0.0 0.0 0.00 1.60 0.00 96 1011.9
20260906043045 21 226 0.0 0.0 0.00 1.60 0.00 96 1011.8
20260906041541 21 226 0.0 0.0 0.00 1.60 0.00 96 1012.0
20260906040038 21 226 0.0 0.0 0.00 1.60 0.00 96 1012.1
20260906034543 21 226 0.0 0.0 0.00 1.60 1.60 96 1012.2
20260906033036 21 226 0.0 0.0 0.00 1.60 1.60 96 1012.3
20260906031546 21 226 0.0 0.0 0.00 1.60 1.60 96 1012.6
20260906030034 21 226 0.0 0.0 0.00 1.60 1.60 96 1012.4
20260906024533 21 226 0.0 0.0 0.00 1.60 1.60 96 1012.4
20260906023033 22 226 0.0 0.0 0.00 1.60 1.60 95 1012.4
20260906021532 22 226 0.0 0.0 0.00 1.60 1.60 95 1012.0
20260906020045 22 226 0.0 0.0 0.00 1.60 1.60 95 1012.0
20260906014534 22 226 0.0 0.0 0.00 1.60 1.60 95 1011.7
20260906013029 22 226 0.0 0.0 0.00 1.60 1.60 95 1011.6
20260906011528 22 226 0.0 4.8 0.00 1.60 1.60 95 1011.4
20260906010028 22 226 0.0 1.6 0.03 1.60 1.60 95 1010.9
20260906004527 22 226 0.0 0.0 0.03 1.60 1.60 94 1010.9
20260906003029 22 227 0.0 1.6 0.03 1.60 1.60 94 1010.8
20260906001531 22 226 0.0 1.6 0.03 1.60 1.60 94 1011.0
20260906000026 22 226 0.0 1.6 0.00 1.57 1.57 94 1011.2
20260905234525 22 226 0.0 1.6 0.00 1.57 1.57 94 1011.6
20260905233031 22 226 0.0 0.0 0.00 1.57 1.57 93 1012.0
20260905231524 22 227 0.0 3.2 0.03 1.57 1.57 93 1011.8
20260905230024 22 226 1.6 4.8 0.51 1.57 1.57 92 1011.9
20260905224523 22 226 0.0 4.8 1.57 1.57 1.57 90 1010.9
20260905223034 22 226 0.0 1.6 1.57 1.57 1.57 88 1010.1
20260905221537 23 226 0.0 4.8 1.55 1.55 1.55 86 1010.2
20260905220022 24 163 3.2 20.9 0.97 0.97 0.97 80 1012.6
20260905214520 28 190 11.3 29.0 0.00 0.00 0.00 73 1013.0
20260905213021 33 63 9.7 33.8 0.00 0.00 0.00 62 1011.1
20260905211536 34 254 0.0 3.2 0.00 0.00 0.00 55 1009.3
20260905210019 36 254 0.0 4.8 0.00 0.00 0.00 50 1009.4
20260905204517 36 285 1.6 6.4 0.00 0.00 0.00 50 1009.3
20260905203015 36 231 1.6 6.4 0.00 0.00 0.00 48 1009.5
20260905201514 36 221 3.2 12.9 0.00 0.00 0.00 46 1009.7
20260905200015 36 255 1.6 11.3 0.00 0.00 0.00 51 1010.0
20260905194511 36 260 1.6 4.8 0.00 0.00 0.00 49 1009.8
20260905193236 36 260 3.2 11.3 0.00 0.00 0.00 50 1011.2
20260905193006 36 258 1.6 11.3 0.00 0.00 0.00 53 1010.1
20260905191544 36 233 3.2 11.3 0.00 0.00 0.00 49 1010.2
20260905190042 36 259 1.6 9.7 0.00 0.00 0.00 55 1010.3
20260905184539 35 274 3.2 11.3 0.00 0.00 0.00 51 1010.8
20260905183036 35 274 3.2 8.0 0.00 0.00 0.00 53 1011.0
20260905181534 35 256 1.6 11.3 0.00 0.00 0.00 55 1011.2
20260905180035 35 234 3.2 12.9 0.00 0.00 0.00 59 1011.5
20260905174529 34 250 1.6 8.0 0.00 0.00 0.00 62 1011.8
20260905173026 34 288 1.6 8.0 0.00 0.00 0.00 61 1011.9
20260905171538 33 228 4.8 12.9 0.00 0.00 0.00 62 1012.2
20260905170028 33 244 3.2 6.4 0.00 0.00 0.00 62 1012.5
20260905164518 33 287 3.2 12.9 0.00 0.00 0.00 62 1012.6
20260905163017 33 285 3.2 8.0 0.00 0.00 0.00 65 1012.9
20260905161511 32 233 1.6 9.7 0.00 0.00 0.00 66 1013.2
20260905160006 32 207 3.2 6.4 0.00 0.00 0.00 68 1013.4
20260905154504 31 186 1.6 14.5 0.00 0.00 0.00 69 1013.4
20260905153101 31 191 0.0 9.7 0.00 0.00 0.00 69 1013.6
20260905151559 31 272 3.2 9.7 0.00 0.00 0.00 72 1013.7
20260905150056 30 286 3.2 8.0 0.00 0.00 0.00 74 1013.8
20260905144554 29 342 0.0 8.0 0.00 0.00 0.00 80 1013.8
20260905143047 28 238 1.6 8.0 0.00 0.00 0.00 82 1014.0
20260905141544 27 238 0.0 8.0 0.00 0.00 0.00 86 1014.1
20260905140042 26 229 0.0 8.0 0.00 0.00 0.00 90 1014.1
20260905134543 26 277 3.2 6.4 0.00 0.00 0.00 93 1014.0
20260905133034 25 321 0.0 8.0 0.00 0.00 0.00 96 1014.2
20260905131533 25 321 0.0 4.8 0.00 0.00 0.00 97 1014.1
20260905130032 24 321 0.0 4.8 0.00 0.00 0.00 97 1014.3
20260905124539 23 321 0.0 3.2 0.00 0.00 0.00 97 1014.3
20260905123029 23 321 0.0 1.6 0.00 0.00 0.00 97 1014.2
20260905121526 23 321 0.0 1.6 0.00 0.00 0.00 97 1014.3
20260905120027 22 321 0.0 1.6 0.00 0.00 0.00 96 1014.1
20260905114521 22 321 0.0 0.0 0.00 0.00 0.00 95 1014.1
20260905113019 22 321 0.0 0.0 0.00 0.00 0.00 95 1013.9
20260905111519 22 321 0.0 0.0 0.00 0.00 0.00 95 1013.8
20260905110018 22 321 0.0 0.0 0.00 0.00 0.00 95 1013.6
20260905104617 22 321 0.0 0.0 0.00 0.00 0.00 95 1013.5
20260905103014 22 321 0.0 0.0 0.00 0.00 0.00 94 1013.4
20260905101513 22 321 0.0 0.0 0.00 0.00 0.00 94 1013.3
20260905100013 22 321 0.0 0.0 0.00 0.00 0.00 94 1013.2
20260905094510 22 321 0.0 0.0 0.00 0.00 0.00 94 1013.1
20260905093010 22 321 0.0 0.0 0.00 0.00 0.00 94 1013.3